greek

ΠΛΗΡΟΦΟΡΙΕΣ ΚΑΙΡΟΥ

english


LGTT 261030Z 00000KT 9999 FEW030 20/05 Q1009 RMK FEW080 SCT180
TAF LGTT 261000Z 2612/2621 VRB03KT 9999 FEW025

 Print LGTT local weather
 EMY AVIATION
 EMY LGTT
 Forecast LGTT
 EMY LGMG
 EMY LGEL
 EMY LGTG
 EMY LGAV
 EMY LGAT
 Latest METAR Reports (OGIMET)
 Latest TAF Reports (OGIMET)
 Greece Forecast
 www.windyty.com
 www.meteo.gr
 SAT 24h
 UK Met Office
 www.kifissiameteo.gr
 forecast.uoa.gr
 www.ntua.gr/weather/
 www.autorouter.eu/gramet
 http://www.jetplan.com/jeppesen/

Στο τηλέφωνο 210-3533689 μπορείτε να πάρετε πληροφορίες για την πτήση σας σε οποιοδήποτε σημείο της χώρας.